Starlink 11344

operational
NORAD ID: 61688 Int'l Des: 2024-195 Owner: SPXS Country: US Constellation: starlink
LEOCIRCULAR

Über Starlink 11344

Beschreibung wird geladen...

Live-Position

3D-Globus wird geladen...

Nächste Überflüge

Höhenverlauf

Altitude vs Time

uPlot chart will show altitude changes over time

Zweizeiliger Elementsatz

1 61688U 24195B 25304.27562817 .00000603 00000-0 98394-5 0 9999
2 61688 53.1580 304.5227 0001634 68.0512 292.0679 15.69705825 58705
Epoch: 31. Okt. 2025 • Age: 7 hours

Aktueller Status

Höhe 361.1 km
Geschwindigkeit 7.70 km/s
Subsatellitenpunkt 29.62°N, 141.96°W
Startdatum 30. Okt. 2024
Alter 1 years
Typ internet

Technische Details

Klassifizierung Payload
Masse 960.00 kg
Trockenmasse 910.00 kg
Gesamtmasse 960.00 kg
Länge 0.30 m
Durchmesser 4.10 m
Spannweite 29.00 m
Form Box + pan
Hersteller SPXS
Bus-Typ Starlink V2MD
Phasenstatus In Orbit
Besitzer/Staat SPXS/US

Große Konstellationen

Loading constellations...